FW9094 Weather Reports


time (UTC)temp
F
wind
direction
speed
knots
gust
knots
rain 1hr
in
rain 24hr
in
rain mn
in
humidity
%
barometer
mb
20260507022737 46 23 2.6 7.0 0.00 0.24 0.00 88 1012.7
20260507020723 46 45 3.5 8.7 0.00 0.24 0.00 89 1012.5
20260507015712 46 23 1.7 7.0 0.00 0.24 0.00 90 1012.3
20260507014649 47 45 1.7 4.3 0.00 0.24 0.00 90 1012.2
20260507013620 47 45 1.7 6.1 0.00 0.24 0.00 90 1012.0
20260507012551 47 68 1.7 4.3 0.00 0.24 0.00 90 1012.0
20260507011526 47 68 2.6 7.0 0.00 0.24 0.00 91 1011.9
20260507010501 47 45 1.7 7.0 0.00 0.24 0.00 91 1011.9
20260507005451 47 45 0.9 4.3 0.00 0.24 0.00 91 1011.8
20260507004453 47 45 1.7 5.2 0.00 0.24 0.00 91 1011.7
20260507003415 47 90 1.7 7.0 0.00 0.24 0.00 92 1011.6
20260507002355 47 135 1.7 3.5 0.00 0.24 0.00 92 1011.6
20260507001322 47 90 1.7 7.0 0.00 0.24 0.00 92 1011.7
20260506235237 48 68 1.7 4.3 0.00 0.24 0.00 92 1011.8
20260506234234 48 113 1.7 7.8 0.00 0.24 0.00 93 1011.7
20260506233212 48 68 0.9 3.5 0.00 0.24 0.00 93 1011.7
20260506232136 48 68 1.7 4.3 0.00 0.24 0.00 93 1011.6
20260506230033 48 68 0.9 2.6 0.00 0.24 0.00 93 1011.8
20260506225017 48 68 1.7 3.5 0.00 0.24 0.00 93 1011.5
20260506223950 48 45 2.6 5.2 0.00 0.24 0.00 93 1011.5
20260506222940 48 45 1.7 4.3 0.00 0.24 0.00 93 1011.4
20260506221912 48 68 1.7 4.3 0.00 0.24 0.00 93 1011.4
20260506220853 47 68 1.7 3.5 0.00 0.24 0.00 93 1011.4
20260506215823 47 68 1.7 3.5 0.00 0.24 0.24 93 1011.3
20260506214811 47 45 1.7 5.2 0.00 0.24 0.24 93 1011.2
20260506213752 47 45 1.7 5.2 0.00 0.24 0.24 94 1011.1
20260506211712 47 68 1.7 4.3 0.00 0.24 0.24 94 1010.9
20260506210641 47 68 0.9 4.3 0.00 0.24 0.24 94 1010.9
20260506205640 47 68 0.9 3.5 0.00 0.24 0.24 94 1010.9
20260506204628 47 68 0.0 0.9 0.00 0.24 0.24 94 1010.9
20260506203609 47 68 0.0 2.6 0.00 0.24 0.24 94 1010.8
20260506202558 47 68 0.9 2.6 0.00 0.24 0.24 94 1010.8
20260506201547 47 23 0.9 2.6 0.00 0.24 0.24 94 1010.7
20260506200515 47 23 1.7 4.3 0.00 0.24 0.24 94 1010.6
20260506195512 47 23 1.7 4.3 0.00 0.24 0.24 95 1010.6
20260506194449 47 45 1.7 4.3 0.00 0.24 0.24 95 1010.6
20260506193440 47 68 0.0 2.6 0.00 0.24 0.24 95 1010.6
20260506192412 47 68 0.0 1.7 0.00 0.24 0.24 94 1010.2
20260506190346 48 68 0.0 0.0 0.00 0.24 0.24 95 1010.0
20260506185317 48 68 0.0 0.0 0.00 0.24 0.24 95 1010.1
20260506184308 48 68 0.0 0.9 0.01 0.24 0.24 95 1009.9
20260506183244 48 68 0.0 0.9 0.01 0.24 0.24 94 1009.9
20260506182221 48 68 0.0 0.0 0.01 0.24 0.24 94 1009.8
20260506181212 48 68 0.0 0.9 0.01 0.24 0.24 94 1009.7
20260506180153 48 68 0.0 1.7 0.02 0.24 0.24 93 1009.6
20260506175129 48 68 0.0 1.7 0.02 0.24 0.24 93 1009.5
20260506174118 48 68 0.0 1.7 0.02 0.24 0.24 93 1009.5
20260506173110 48 68 0.0 1.7 0.03 0.24 0.24 93 1009.3
20260506171025 48 68 0.0 1.7 0.04 0.23 0.23 93 1009.3
20260506165956 48 68 0.0 1.7 0.05 0.22 0.22 92 1009.3
20260506164932 48 68 0.0 1.7 0.06 0.21 0.21 92 1009.3
20260506163923 48 68 0.0 1.7 0.06 0.20 0.20 92 1009.3
20260506162908 48 68 0.0 1.7 0.06 0.20 0.20 91 1009.3
20260506161835 48 68 0.9 2.6 0.06 0.19 0.19 89 1009.3
20260506160819 49 68 1.7 3.5 0.04 0.17 0.17 87 1009.4
20260506155815 49 45 1.7 4.3 0.03 0.17 0.17 85 1009.4
20260506154805 50 45 1.7 4.3 0.02 0.15 0.15 85 1009.5
20260506153754 50 68 2.6 7.8 0.02 0.14 0.14 84 1009.4
20260506152735 50 45 3.5 7.8 0.01 0.13 0.13 83 1009.3
20260506151714 51 45 2.6 7.0 0.02 0.13 0.13 82 1009.2
20260506150701 51 45 1.7 4.3 0.02 0.13 0.13 84 1009.2
20260506145657 50 45 2.6 7.8 0.01 0.13 0.13 87 1009.2
20260506144637 50 90 0.9 7.8 0.02 0.13 0.13 91 1009.2
20260506143624 50 113 0.9 2.6 0.02 0.13 0.13 90 1009.2
20260506142605 50 45 1.7 7.8 0.02 0.12 0.12 89 1009.2
20260506141547 51 113 0.0 7.8 0.02 0.12 0.12 90 1009.2
20260506140528 50 113 0.9 3.5 0.03 0.12 0.12 89 1009.2
20260506135516 50 113 0.9 3.5 0.02 0.11 0.11 88 1009.2
20260506134441 51 113 1.7 8.7 0.03 0.11 0.11 87 1009.2
20260506125328 49 68 0.0 0.9 0.02 0.08 0.08 90 1009.2
20260506124257 50 68 0.0 0.9 0.02 0.07 0.07 89 1009.1
20260506123226 50 68 0.0 0.9 0.02 0.07 0.07 87 1009.0
20260506122156 50 68 0.0 1.7 0.01 0.06 0.06 85 1009.0
20260506121135 50 68 0.9 2.6 0.00 0.06 0.06 83 1008.9
20260506120113 51 45 1.7 4.3 0.01 0.06 0.06 81 1008.8
20260506115108 50 45 1.7 4.3 0.01 0.06 0.06 82 1008.8
20260506114049 50 45 1.7 4.3 0.02 0.06 0.06 83 1008.8
20260506113032 49 45 1.7 5.2 0.02 0.06 0.06 84 1008.8
20260506110950 49 45 1.7 7.0 0.02 0.05 0.05 85 1008.8
20260506105912 49 45 1.7 4.3 0.02 0.05 0.05 85 1008.9
20260506104852 50 68 1.7 5.2 0.02 0.04 0.04 85 1008.9
20260506102822 50 45 2.6 6.1 0.02 0.03 0.03 82 1008.9
20260506101749 50 68 2.6 5.2 0.02 0.03 0.03 84 1008.9
20260506100723 50 45 2.6 5.2 0.02 0.02 0.02 85 1008.8
20260506094648 49 68 1.7 5.2 0.02 0.02 0.02 85 1008.8
20260506091530 49 45 2.6 6.1 0.01 0.01 0.01 81 1008.9
20260506090512 49 45 3.5 9.6 0.00 0.00 0.00 79 1008.8
20260506085513 50 68 3.5 8.7 0.00 0.00 0.00 79 1008.8
20260506082445 50 45 4.3 9.6 0.00 0.00 0.00 75 1008.6
20260506081435 50 45 3.5 8.7 0.00 0.00 0.00 76 1008.5
20260506080420 50 68 3.5 7.8 0.00 0.00 0.00 76 1008.4
20260506073324 49 45 3.5 8.7 0.00 0.00 0.00 76 1008.3
20260506072307 49 45 3.5 8.7 0.00 0.00 0.00 75 1008.3
20260506071256 49 45 3.5 9.6 0.00 0.00 0.00 74 1008.3
20260506070230 49 45 4.3 9.6 0.00 0.00 0.00 73 1008.4
20260506062026 49 45 3.5 7.8 0.00 0.00 0.00 72 1008.2
20260506061006 49 45 3.5 7.8 0.00 0.00 0.00 72 1008.1
20260506050747 49 45 3.5 7.8 0.00 0.03 0.00 74 1008.1
20260506044716 48 45 3.5 8.7 0.00 0.05 0.00 74 1008.2
20260506043643 49 45 2.6 5.2 0.00 0.06 0.00 75 1008.3
20260506042624 49 45 2.6 6.1 0.00 0.06 0.00 74 1008.3
20260506041611 49 45 3.5 7.8 0.00 0.07 0.00 75 1008.3
20260506040609 49 68 2.6 7.0 0.00 0.09 0.00 75 1008.3
20260506034537 49 45 3.5 7.8 0.00 0.12 0.00 73 1008.2
20260506033513 49 45 3.5 8.7 0.00 0.13 0.00 72 1008.2
20260506032448 49 68 3.5 8.7 0.00 0.13 0.00 71 1008.3
20260506031422 49 45 2.6 7.0 0.00 0.13 0.00 73 1008.4
20260506030401 49 45 2.6 6.1 0.00 0.14 0.00 75 1008.5
20260506025336 49 68 2.6 6.1 0.00 0.14 0.00 75 1008.7
20260506023248 49 68 1.7 4.3 0.00 0.15 0.00 75 1008.8